• In India
  • List of Countries
  • For 7 days
  • Water Temperature
  • Satellite Maps
  • Weather Map
  • Weather Widgets
  • user-avatar
    Login

    Hourly Weather Hobart

    Today, 19 July, Thursday

    Time Temperature Precipitation Wind Pressure Humidity
    00:00 +9°C° 1 mm 6 mps 735 mmHg 88%
    01:00 +9°C° 1 mm 5 mps 735 mmHg 88%
    02:00 +9°C° 0.7 mm 5 mps 734 mmHg 88%
    03:00 +9°C° 0.7 mm 5 mps 734 mmHg 88%
    04:00 +9°C° 0 mm 6 mps 733 mmHg 88%
    05:00 +8°C° 0.5 mm 6 mps 733 mmHg 89%
    06:00 +8°C° 0.5 mm 6 mps 733 mmHg 91%
    07:00 +8°C° 0.5 mm 6 mps 733 mmHg 92%
    08:00 +8°C° 0.1 mm 6 mps 734 mmHg 90%
    09:00 +8°C° 0.1 mm 6 mps 734 mmHg 87%
    10:00 +8°C° 0.1 mm 6 mps 734 mmHg 84%
    11:00 +8°C° 0 mm 6 mps 734 mmHg 78%
    12:00 +9°C° 0 mm 6 mps 734 mmHg 72%
    13:00 +9°C° 0 mm 6 mps 734 mmHg 66%
    14:00 +8°C° 0 mm 6 mps 734 mmHg 67%
    15:00 +8°C° 0 mm 6 mps 734 mmHg 68%
    16:00 +7°C° 0 mm 5 mps 734 mmHg 68%
    17:00 +6°C° 0 mm 5 mps 734 mmHg 72%
    18:00 +6°C° 0 mm 5 mps 734 mmHg 76%
    19:00 +5°C° 0 mm 5 mps 734 mmHg 80%
    20:00 +5°C° 0 mm 5 mps 734 mmHg 79%
    21:00 +5°C° 0 mm 5 mps 734 mmHg 79%
    22:00 +5°C° 0 mm 5 mps 734 mmHg 79%
    23:00 +5°C° 0 mm 5 mps 734 mmHg 78%

    Tomorrow, 20 July, Friday

    Time Temperature Precipitation Wind Pressure Humidity
    00:00 +4°C° 0 mm 6 mps 734 mmHg 78%
    01:00 +4°C° 0 mm 6 mps 733 mmHg 77%
    02:00 +3°C° 0 mm 6 mps 733 mmHg 77%
    03:00 +3°C° 0 mm 6 mps 733 mmHg 76%
    04:00 +3°C° 0 mm 6 mps 733 mmHg 76%
    05:00 +3°C° 0 mm 6 mps 733 mmHg 76%
    06:00 +3°C° 0 mm 6 mps 733 mmHg 75%
    07:00 +3°C° 0 mm 6 mps 732 mmHg 74%
    08:00 +4°C° 0 mm 7 mps 732 mmHg 72%
    09:00 +5°C° 0 mm 7 mps 732 mmHg 69%
    10:00 +6°C° 0 mm 7 mps 732 mmHg 66%
    11:00 +8°C° 0.1 mm 7 mps 732 mmHg 66%
    12:00 +7°C° 0.1 mm 8 mps 732 mmHg 66%
    13:00 +7°C° 0.1 mm 8 mps 733 mmHg 66%
    14:00 +7°C° 0.3 mm 8 mps 733 mmHg 67%
    15:00 +6°C° 0.3 mm 9 mps 734 mmHg 69%
    16:00 +6°C° 0.3 mm 9 mps 735 mmHg 71%
    17:00 +5°C° 0.1 mm 8 mps 736 mmHg 75%
    18:00 +4°C° 0.1 mm 8 mps 737 mmHg 79%
    19:00 +4°C° 0.1 mm 8 mps 738 mmHg 83%
    20:00 +2°C° 0.1 mm 8 mps 739 mmHg 83%
    21:00 +2°C° 0.1 mm 8 mps 740 mmHg 83%
    22:00 +2°C° 0.1 mm 8 mps 741 mmHg 83%
    23:00 +3°C° 0.1 mm 7 mps 742 mmHg 84%

    Day after tomorrow, 21 July, Saturday

    Time Temperature Precipitation Wind Pressure Humidity
    00:00 +3°C° 0.1 mm 7 mps 742 mmHg 85%
    01:00 +3°C° 0.1 mm 7 mps 743 mmHg 85%
    02:00 +3°C° 0.1 mm 6 mps 743 mmHg 86%
    03:00 +3°C° 0.1 mm 6 mps 744 mmHg 87%
    04:00 +2°C° 0.1 mm 6 mps 744 mmHg 88%
    05:00 +2°C° 0.1 mm 5 mps 745 mmHg 89%
    06:00 +2°C° 0.1 mm 5 mps 746 mmHg 90%
    07:00 +2°C° 0.1 mm 5 mps 746 mmHg 92%
    08:00 +3°C° 0.1 mm 5 mps 747 mmHg 86%
    09:00 +5°C° 0.1 mm 5 mps 748 mmHg 80%
    10:00 +7°C° 0.1 mm 6 mps 748 mmHg 74%
    11:00 +7°C° 0.1 mm 5 mps 748 mmHg 71%
    12:00 +8°C° 0.1 mm 5 mps 748 mmHg 67%
    13:00 +8°C° 0.1 mm 5 mps 748 mmHg 64%
    14:00 +8°C° 0 mm 5 mps 748 mmHg 65%
    15:00 +8°C° 0 mm 4 mps 749 mmHg 66%
    16:00 +9°C° 0 mm 3 mps 749 mmHg 67%
    17:00 +7°C° 0 mm 3 mps 749 mmHg 75%
    18:00 +4°C° 0 mm 3 mps 750 mmHg 83%
    19:00 +4°C° 0 mm 2 mps 750 mmHg 91%
    20:00 +4°C° 0 mm 2 mps 751 mmHg 91%
    21:00 +3°C° 0 mm 2 mps 751 mmHg 92%
    22:00 +3°C° 0 mm 2 mps 751 mmHg 93%
    23:00 +3°C° 0 mm 2 mps 751 mmHg 92%

    22 July, Sunday

    Time Temperature Precipitation Wind Pressure Humidity
    00:00 +3°C° 0 mm 2 mps 751 mmHg 92%
    01:00 +3°C° 0 mm 2 mps 751 mmHg 91%
    02:00 +3°C° 0 mm 2 mps 751 mmHg 89%
    03:00 +3°C° 0 mm 2 mps 751 mmHg 88%
    04:00 +3°C° 0 mm 2 mps 751 mmHg 86%
    05:00 +3°C° 0 mm 2 mps 751 mmHg 88%
    06:00 +3°C° 0 mm 2 mps 751 mmHg 89%
    07:00 +3°C° 0 mm 2 mps 751 mmHg 90%
    08:00 +5°C° 0 mm 2 mps 751 mmHg 85%
    09:00 +7°C° 0 mm 2 mps 751 mmHg 79%
    10:00 +8°C° 0 mm 3 mps 751 mmHg 73%
    11:00 +10°C° 0 mm 3 mps 750 mmHg 69%
    12:00 +11°C° 0 mm 3 mps 750 mmHg 65%
    13:00 +13°C° 0 mm 3 mps 750 mmHg 61%
    14:00 +12°C° 0 mm 3 mps 749 mmHg 63%
    15:00 +12°C° 0 mm 3 mps 749 mmHg 65%
    16:00 +11°C° 0 mm 3 mps 748 mmHg 67%
    17:00 +10°C° 0 mm 4 mps 748 mmHg 73%
    18:00 +7°C° 0 mm 4 mps 748 mmHg 79%
    19:00 +6°C° 0 mm 4 mps 748 mmHg 85%
    20:00 +6°C° 0 mm 4 mps 748 mmHg 85%
    21:00 +5°C° 0 mm 5 mps 748 mmHg 86%
    22:00 +5°C° 0 mm 5 mps 748 mmHg 86%
    23:00 +5°C° 0 mm 5 mps 747 mmHg 85%

    23 July, Monday

    Time Temperature Precipitation Wind Pressure Humidity
    00:00 +6°C° 0 mm 5 mps 747 mmHg 85%
    01:00 +6°C° 0 mm 5 mps 746 mmHg 84%
    02:00 +6°C° 0 mm 5 mps 746 mmHg 82%
    03:00 +6°C° 0 mm 5 mps 745 mmHg 81%
    04:00 +6°C° 0 mm 5 mps 745 mmHg 80%
    05:00 +7°C° 0 mm 5 mps 745 mmHg 78%
    06:00 +7°C° 0 mm 5 mps 745 mmHg 77%
    07:00 +7°C° 0 mm 6 mps 744 mmHg 76%
    08:00 +8°C° 0.1 mm 6 mps 744 mmHg 73%
    09:00 +9°C° 0.1 mm 6 mps 744 mmHg 70%
    10:00 +11°C° 0.1 mm 7 mps 744 mmHg 68%
    11:00 +11°C° 0.2 mm 6 mps 743 mmHg 66%
    12:00 +13°C° 0.2 mm 6 mps 743 mmHg 65%
    13:00 +13°C° 0.2 mm 6 mps 742 mmHg 63%
    14:00 +13°C° 0.1 mm 6 mps 742 mmHg 65%
    15:00 +11°C° 0.1 mm 6 mps 741 mmHg 67%
    16:00 +11°C° 0.1 mm 7 mps 741 mmHg 69%
    17:00 +10°C° 0.1 mm 7 mps 741 mmHg 71%
    18:00 +10°C° 0.1 mm 7 mps 740 mmHg 73%
    19:00 +9°C° 0.1 mm 7 mps 740 mmHg 76%
    20:00 +9°C° 0.1 mm 7 mps 740 mmHg 76%
    21:00 +9°C° 0.1 mm 6 mps 740 mmHg 77%
    22:00 +9°C° 0.1 mm 6 mps 740 mmHg 77%
    23:00 +9°C° 0.1 mm 5 mps 740 mmHg 80%

    24 July, Tuesday

    Time Temperature Precipitation Wind Pressure Humidity
    00:00 +8°C° 0.1 mm 4 mps 740 mmHg 82%
    01:00 +8°C° 0.1 mm 4 mps 740 mmHg 85%
    02:00 +9°C° 0.1 mm 3 mps 740 mmHg 88%
    03:00 +8°C° 0.1 mm 3 mps 740 mmHg 91%
    04:00 +8°C° 0.1 mm 2 mps 740 mmHg 94%
    05:00 +8°C° 0 mm 2 mps 741 mmHg 94%
    06:00 +8°C° 0 mm 2 mps 741 mmHg 94%
    07:00 +8°C° 0 mm 2 mps 742 mmHg 94%
    08:00 +9°C° 0 mm 2 mps 742 mmHg 88%
    09:00 +10°C° 0 mm 3 mps 743 mmHg 81%
    10:00 +11°C° 0 mm 3 mps 743 mmHg 74%
    11:00 +12°C° 0 mm 3 mps 743 mmHg 67%
    12:00 +12°C° 0 mm 3 mps 742 mmHg 59%
    13:00 +13°C° 0 mm 3 mps 742 mmHg 51%
    14:00 +13°C° 0 mm 3 mps 742 mmHg 53%
    15:00 +13°C° 0 mm 3 mps 742 mmHg 55%
    16:00 +12°C° 0 mm 3 mps 742 mmHg 57%
    17:00 +11°C° 0 mm 3 mps 742 mmHg 63%
    18:00 +10°C° 0 mm 3 mps 742 mmHg 70%
    19:00 +8°C° 0 mm 4 mps 742 mmHg 77%
    20:00 +8°C° 0.1 mm 4 mps 742 mmHg 78%
    21:00 +9°C° 0.1 mm 5 mps 741 mmHg 79%
    22:00 +9°C° 0.1 mm 5 mps 741 mmHg 80%
    23:00 +8°C° 0.6 mm 5 mps 742 mmHg 84%
    Show more